KAL510 EHAM-RKSI

Flight info

Callsign KAL510
Flight time N/A
Altitude 29000
Route ARNEM L620 SUVOX Z718 OSNAD L980 SAS L986 BOLBO M748 HDO DCT ODLIV DCT ODNEM DCT BUDOP/N0490F310 DCT DINRO N743 UDROS UM859 KARDE UN644 ROLIN DCT TAGAR DCT BT DCT BARAD M747 SUBUT T916 BALUN/K0902F330 T916 PIGAL M610 RULAD/K0895S1010 A343 POSOT B215 FKG W188 RIMDU/K0895S1070 W188 LIKMI W270 DKO W69 HUR B339 LADIX W34 VAPGU W100 ORAVA W201 UNSEK A326 DONVO G597 AGAVO Y644 REBIT
Aircraft B77L/H-SDE1E2E3FGHIJ2J3J4J5M1RWXY/LB1D1

Departure

Time 2026-05-04 18:50
Airport Amsterdam Airport Schiphol (EHAM)

Arrival

Time N/A
Airport Incheon International Airport (RKSI)
Time Latitude Longitude Altitude Speed Heading
2026-05-04 18:25 52.29666 4.76595 3 ft 0 kts 146°
2026-05-04 18:37 52.29684 4.76575 3 ft 4 kts 148°
2026-05-04 18:38 52.29707 4.76553 4 ft 4 kts 155°
2026-05-04 18:38 52.29731 4.76539 6 ft 4 kts 175°
2026-05-04 18:38 52.29751 4.76541 6 ft 4 kts 220°
2026-05-04 18:38 52.29763 4.76568 4 ft 4 kts 238°
2026-05-04 18:39 52.29777 4.76606 5 ft 4 kts 238°
2026-05-04 18:39 52.29790 4.76638 5 ft 1 kts 238°
2026-05-04 18:39 52.29790 4.76639 5 ft 0 kts 238°
2026-05-04 18:42 52.29780 4.76613 5 ft 5 kts 238°
2026-05-04 18:42 52.29753 4.76544 6 ft 9 kts 238°
2026-05-04 18:42 52.29720 4.76457 3 ft 9 kts 238°
2026-05-04 18:42 52.29686 4.76367 3 ft 11 kts 238°
2026-05-04 18:43 52.29646 4.76262 3 ft 11 kts 238°
2026-05-04 18:43 52.29605 4.76158 3 ft 11 kts 238°
2026-05-04 18:43 52.29565 4.76053 3 ft 11 kts 238°
2026-05-04 18:43 52.29527 4.75946 3 ft 11 kts 245°
2026-05-04 18:44 52.29502 4.75829 3 ft 11 kts 252°
2026-05-04 18:44 52.29482 4.75754 3 ft 11 kts 240°
2026-05-04 18:44 52.29439 4.75606 3 ft 11 kts 268°
2026-05-04 18:44 52.29490 4.75499 2 ft 16 kts 327°
2026-05-04 18:45 52.29585 4.75400 2 ft 16 kts 327°
2026-05-04 18:45 52.29681 4.75303 3 ft 16 kts 334°
2026-05-04 18:45 52.29791 4.75268 3 ft 16 kts 346°
2026-05-04 18:45 52.29871 4.75140 3 ft 16 kts 311°
2026-05-04 18:46 52.29947 4.75001 3 ft 16 kts 311°
2026-05-04 18:46 52.30029 4.74849 3 ft 19 kts 311°
2026-05-04 18:46 52.30116 4.74690 11 ft 19 kts 311°
2026-05-04 18:46 52.30202 4.74531 14 ft 19 kts 311°
2026-05-04 18:47 52.30284 4.74377 13 ft 16 kts 310°
2026-05-04 18:47 52.30354 4.74244 3 ft 14 kts 306°
2026-05-04 18:47 52.30354 4.74095 3 ft 14 kts 242°
2026-05-04 18:47 52.30282 4.73991 3 ft 14 kts 216°
2026-05-04 18:48 52.30204 4.73895 3 ft 14 kts 221°
2026-05-04 18:48 52.30194 4.73763 2 ft 11 kts 296°
2026-05-04 18:48 52.30264 4.73742 0 ft 11 kts
2026-05-04 18:48 52.30311 4.73748 0 ft 5 kts
2026-05-04 18:49 52.30356 4.73753 0 ft 12 kts
2026-05-04 18:49 52.30609 4.73774 1 ft 73 kts
2026-05-04 18:49 52.31386 4.73849 2 ft 149 kts
2026-05-04 18:49 52.32633 4.73969 61 ft 199 kts
2026-05-04 18:50 52.34020 4.74094 756 ft 200 kts
2026-05-04 18:50 52.35375 4.74720 1463 ft 208 kts 27°
2026-05-04 18:50 52.36638 4.75869 2198 ft 210 kts 28°
2026-05-04 18:50 52.37946 4.77110 2311 ft 224 kts 39°
2026-05-04 18:51 52.39039 4.78948 2572 ft 232 kts 46°
2026-05-04 18:51 52.40193 4.80918 2813 ft 244 kts 45°
2026-05-04 18:51 52.41396 4.82947 3198 ft 250 kts 46°
2026-05-04 18:51 52.42300 4.85349 3462 ft 258 kts 77°
2026-05-04 18:52 52.42408 4.88295 3779 ft 263 kts 90°
2026-05-04 18:52 52.42397 4.91334 4205 ft 267 kts 89°
2026-05-04 18:52 52.42405 4.94384 4769 ft 268 kts 89°
2026-05-04 18:52 52.42297 4.97438 5132 ft 272 kts 106°
2026-05-04 18:53 52.41343 5.00087 5504 ft 273 kts 139°
2026-05-04 18:53 52.39819 5.01923 5931 ft 274 kts 145°
2026-05-04 18:53 52.38248 5.03723 6416 ft 275 kts 145°
2026-05-04 18:53 52.36684 5.05527 6927 ft 276 kts 145°
2026-05-04 18:54 52.35106 5.07345 7367 ft 279 kts 145°
2026-05-04 18:54 52.33601 5.09333 7743 ft 280 kts 128°
2026-05-04 18:54 52.32744 5.11978 8002 ft 282 kts 110°
2026-05-04 18:54 52.32100 5.14816 8389 ft 285 kts 111°
2026-05-04 18:55 52.31397 5.17842 8892 ft 285 kts 111°
2026-05-04 18:55 52.29960 5.23955 9776 ft 290 kts 112°
2026-05-04 18:55 52.29228 5.27043 10196 ft 293 kts 112°
2026-05-04 18:56 52.28474 5.30215 10348 ft 308 kts 112°
2026-05-04 18:56 52.27687 5.33515 10503 ft 323 kts 112°